Weather History for LTFE - November, 2012

Change the Weather History Date:

Wednesday, November 14, 2012

  Actual Average (LGKO) Record (LGKO)
Temperature  
Mean Temperature 58 °F -  
Max Temperature 71 °F 65 °F 75 °F (2004)
Min Temperature 46 °F 56 °F 48 °F (2011)
Degree Days  
Heating Degree Days 6    
Growing Degree Days 8 (Base 50)    
Moisture  
Dew Point 50 °F    
Average Humidity 79    
Maximum Humidity 94    
Minimum Humidity 49    
Precipitation  
Precipitation 0.00 in - - ()
Sea Level Pressure  
Sea Level Pressure 30.04 in    
Wind  
Wind Speed 3 mph ()    
Max Wind Speed 10 mph    
Max Gust Speed -    
Visibility 6.2 miles    
Events      
Averages and records for this station are not official NWS values.
T = Trace of Precipitation, MM = Missing Value Source: Averaged Metar Reports

Daily Weather History Graph

Daily Weather History Graph

Search for Another Location

Airport or City:

Trip Planner

Search our weather history database for the weather conditions in past years. The results will help you decide how hot, cold, wet, or windy it might be!

Date:

Astronomy

Nov. 14, 2012 Rise Set
Actual Time 6:47 AM EET 4:59 PM EET
Civil Twilight 6:19 AM EET 5:27 PM EET
Nautical Twilight 5:48 AM EET 5:58 PM EET
Astronomical Twilight 5:17 AM EET 6:29 PM EET
Moon 7:12 AM EET (11/14) 5:30 PM EET (11/14)
Length of Visible Light 11h 07m
Length of Day
10h 12m
New Moon, 0% of the Moon is Illuminated
Nov 14
New Moon
Nov 20
First Quarter
Nov 28
Full
Dec 6
Last Quarter
Dec 13
New

Hourly Weather History & Observations

Time (EET) Temp. Windchill Dew Point Humidity Pressure Visibility Wind Dir Wind Speed Gust Speed Precip Events Conditions
12:20 AM 50.0 °F - 46.4 °F 87% 30.04 in - Variable 2.3 mph - N/A   Clear
12:50 AM 50.0 °F - 46.4 °F 87% 30.04 in - Calm Calm - N/A   Clear
1:20 AM 51.8 °F - 48.2 °F 88% 30.04 in - SSE 3.5 mph - N/A   Clear
1:50 AM 50.0 °F - 46.4 °F 87% 30.04 in - ESE 3.5 mph - N/A   Clear
2:20 AM 48.2 °F - 46.4 °F 93% 30.04 in - SE 4.6 mph - N/A   Clear
2:50 AM 48.2 °F - 44.6 °F 87% 30.04 in - SE 2.3 mph - N/A   Clear
3:20 AM 46.4 °F - 44.6 °F 93% 30.04 in - East 2.3 mph - N/A   Clear
3:50 AM 46.4 °F 44.3 °F 44.6 °F 93% 30.04 in - SE 4.6 mph - N/A   Clear
4:20 AM 48.2 °F - 44.6 °F 87% 30.04 in - Variable 1.2 mph - N/A   Clear
4:50 AM 46.4 °F 44.3 °F 44.6 °F 93% 30.04 in - SE 4.6 mph - N/A   Clear
5:20 AM 46.4 °F - 44.6 °F 93% 30.04 in - Calm Calm - N/A   Clear
5:50 AM 46.4 °F 45.2 °F 44.6 °F 93% 30.04 in - ESE 3.5 mph - N/A   Clear
6:20 AM 46.4 °F 44.3 °F 44.6 °F 93% 30.04 in - SSE 4.6 mph - N/A   Clear
6:50 AM 46.4 °F 44.3 °F 42.8 °F 87% 30.04 in - Variable 4.6 mph - N/A   Clear
7:20 AM 46.4 °F - 42.8 °F 87% 30.04 in - Variable 2.3 mph - N/A   Clear
7:50 AM 48.2 °F - 46.4 °F 93% 30.06 in - Variable 2.3 mph - N/A   Clear
8:20 AM 51.8 °F - 48.2 °F 88% 30.06 in - ESE 3.5 mph - N/A   Clear
8:50 AM 53.6 °F - 48.2 °F 82% 30.06 in - ESE 3.5 mph - N/A   Clear
9:20 AM 57.2 °F - 50.0 °F 77% 30.06 in - Variable 2.3 mph - N/A   Clear
9:50 AM 59.0 °F - 50.0 °F 72% 30.06 in - Variable 2.3 mph - N/A   Clear
10:20 AM 66.2 °F - 51.8 °F 60% 30.06 in - Variable 1.2 mph - N/A   Clear
10:50 AM 68.0 °F - 51.8 °F 56% 30.04 in - Calm Calm - N/A   Clear
11:20 AM 68.0 °F - 51.8 °F 56% 30.04 in - Variable 2.3 mph - N/A   Clear
11:50 AM 69.8 °F - 50.0 °F 49% 30.04 in - Variable 1.2 mph - N/A   Clear
12:20 PM 69.8 °F - 53.6 °F 56% 30.01 in 6.2 mi West 5.8 mph - N/A   Partly Cloudy
12:50 PM 69.8 °F - 53.6 °F 56% 30.01 in 6.2 mi WNW 8.1 mph - N/A   Partly Cloudy
1:20 PM 69.8 °F - 53.6 °F 56% 30.01 in 6.2 mi West 9.2 mph - N/A   Partly Cloudy
1:50 PM 71.6 °F - 51.8 °F 50% 30.01 in 6.2 mi West 6.9 mph - N/A   Partly Cloudy
2:20 PM 71.6 °F - 55.4 °F 57% 30.01 in 6.2 mi West 6.9 mph - N/A   Partly Cloudy
2:50 PM 71.6 °F - 55.4 °F 57% 30.01 in 6.2 mi WNW 8.1 mph - N/A   Partly Cloudy
3:20 PM 69.8 °F - 53.6 °F 56% 30.01 in 6.2 mi WNW 10.4 mph - N/A   Partly Cloudy
3:50 PM 68.0 °F - 53.6 °F 60% 30.01 in 6.2 mi WNW 9.2 mph - N/A   Partly Cloudy
4:20 PM 66.2 °F - 53.6 °F 64% 30.01 in 6.2 mi West 5.8 mph - N/A   Partly Cloudy
4:50 PM 66.2 °F - 53.6 °F 64% 30.01 in 6.2 mi Variable 1.2 mph - N/A   Partly Cloudy
5:20 PM 64.4 °F - 53.6 °F 68% 30.01 in 6.2 mi Variable 2.3 mph - N/A   Partly Cloudy
5:50 PM 62.6 °F - 53.6 °F 72% 30.04 in 6.2 mi Variable 2.3 mph - N/A   Partly Cloudy
6:20 PM 59.0 °F - 53.6 °F 82% 30.04 in 6.2 mi East 5.8 mph - N/A   Partly Cloudy
6:50 PM 59.0 °F - 53.6 °F 82% 30.04 in 6.2 mi ESE 4.6 mph - N/A   Partly Cloudy
7:20 PM 57.2 °F - 53.6 °F 88% 30.04 in - ESE 6.9 mph - N/A   Clear
7:50 PM 55.4 °F - 51.8 °F 88% 30.04 in - SE 5.8 mph - N/A   Clear
8:20 PM 55.4 °F - 51.8 °F 88% 30.04 in - SSE 5.8 mph - N/A   Clear
8:50 PM 53.6 °F - 51.8 °F 94% 30.04 in - ESE 5.8 mph - N/A   Clear
9:20 PM 53.6 °F - 51.8 °F 94% 30.04 in - SE 4.6 mph - N/A   Clear
9:50 PM 53.6 °F - 51.8 °F 94% 30.06 in - SE 3.5 mph - N/A   Clear
10:20 PM 53.6 °F - 50.0 °F 88% 30.06 in - SE 4.6 mph - N/A   Clear
10:50 PM 51.8 °F - 50.0 °F 94% 30.06 in - ESE 5.8 mph - N/A   Clear
11:20 PM 51.8 °F - 50.0 °F 94% 30.06 in - ESE 4.6 mph - N/A   Clear
11:50 PM 51.8 °F - 50.0 °F 94% 30.06 in - SE 5.8 mph - N/A   Clear